Weather History for Nuiqsut, AK

Change the Weather History Date:

Monday, May 27, 2013

  Actual Average (PAKU) Record (PAKU)
Temperature  
Mean Temperature 32 °F -  
Max Temperature 33 °F 31 °F 51 °F (1998)
Min Temperature 30 °F 23 °F 14 °F (2000)
Degree Days  
Heating Degree Days 34    
Moisture  
Dew Point 31 °F    
Average Humidity 99    
Maximum Humidity 100    
Minimum Humidity 89    
Precipitation  
Precipitation 0.00 in - - ()
Sea Level Pressure  
Sea Level Pressure 30.12 in    
Wind  
Wind Speed 9 mph (North)    
Max Wind Speed 12 mph    
Max Gust Speed -    
Visibility 5 miles    
Events Fog    
Averages and records for this station are not official NWS values.
T = Trace of Precipitation, MM = Missing Value Source: NWS Daily Summary

Daily Weather History Graph

Daily Weather History Graph

Search for Another Location

Airport:

Trip Planner

Search our weather history database for the weather conditions in past years. The results will help you decide how hot, cold, wet, or windy it might be!

Date:

Astronomy

Dec. 31, 1969 Rise Set
Actual Time Sun does not rise Sun does not rise
Civil Twilight Sun does not rise Sun does not rise
Nautical Twilight Sun does not rise Sun does not rise
Astronomical Twilight Sun does not rise Sun does not rise
Moon 3:21 AM AKDT (5/27) 5:31 AM AKDT (5/27)
Length of Visible Light 24h 00m
Length of Day
24h 00m
Waning Gibbous, 90% of the Moon is Illuminated
May 27
Waning Gibbous
May 31
Last Quarter
Jun 8
New
Jun 16
First Quarter
Jun 23
Full

Hourly Weather History & Observations

Time (AKDT) Temp. Windchill Dew Point Humidity Pressure Visibility Wind Dir Wind Speed Gust Speed Precip Events Conditions
12:53 AM 32.0 °F 23.6 °F 32.0 °F 100% 30.07 in 0.2 mi West 10.4 mph - N/A Fog Fog
1:14 AM 32.0 °F 23.6 °F 32.0 °F 100% 30.07 in 1.8 mi West 10.4 mph - N/A   Overcast
1:19 AM 32.0 °F 23.0 °F 32.0 °F 100% 30.07 in 3.0 mi West 11.5 mph - N/A   Overcast
1:53 AM 32.0 °F 24.2 °F 32.0 °F 100% 30.09 in 1.5 mi West 9.2 mph - N/A   Overcast
2:02 AM 32.0 °F 24.8 °F 32.0 °F 100% 30.09 in 2.0 mi West 8.1 mph - N/A   Overcast
2:21 AM 33.8 °F 26.4 °F 33.8 °F 100% 30.09 in 1.8 mi West 9.2 mph - N/A   Overcast
2:32 AM 32.0 °F 24.2 °F 32.0 °F 100% 30.09 in 2.5 mi WNW 9.2 mph - N/A   Overcast
2:40 AM 32.0 °F 23.0 °F 32.0 °F 100% 30.10 in 4.0 mi West 11.5 mph - N/A   Overcast
2:53 AM 32.0 °F 24.2 °F 32.0 °F 100% 30.10 in 7.0 mi WNW 9.2 mph - N/A   Overcast
3:36 AM 30.2 °F 21.3 °F 30.2 °F 100% 30.11 in 2.5 mi West 10.4 mph - N/A   Overcast
3:53 AM 30.9 °F 22.2 °F 30.9 °F 100% 30.11 in 1.8 mi West 10.4 mph - N/A   Overcast
4:00 AM 30.2 °F 21.3 °F 30.2 °F 100% 30.11 in 3.0 mi WNW 10.4 mph - N/A   Overcast
4:53 AM 30.9 °F 22.8 °F 30.9 °F 100% 30.12 in 5.0 mi WNW 9.2 mph - N/A   Overcast
5:53 AM 30.0 °F 22.4 °F 30.0 °F 100% 30.12 in 3.0 mi NNW 8.1 mph - N/A   Overcast
6:09 AM 30.2 °F 21.9 °F 30.2 °F 100% 30.11 in 1.8 mi NW 9.2 mph - N/A   Overcast
6:17 AM 30.2 °F 24.3 °F 30.2 °F 100% 30.11 in 3.0 mi NNW 5.8 mph - N/A   Overcast
6:29 AM 30.2 °F 24.3 °F 30.2 °F 100% 30.11 in 1.5 mi NW 5.8 mph - N/A   Overcast
6:53 AM 30.0 °F 25.2 °F 30.0 °F 100% 30.12 in 2.5 mi NNW 4.6 mph - N/A   Overcast
7:00 AM 30.2 °F 22.6 °F 30.2 °F 100% 30.12 in 3.0 mi North 8.1 mph - N/A   Overcast
7:29 AM 30.2 °F 26.7 °F 30.2 °F 100% 30.13 in 2.5 mi NNW 3.5 mph - N/A   Overcast
7:53 AM 30.0 °F 22.4 °F 30.0 °F 100% 30.13 in 3.0 mi NNW 8.1 mph - N/A   Overcast
8:53 AM 30.9 °F 26.2 °F 30.9 °F 100% 30.14 in 8.0 mi NNE 4.6 mph - N/A   Overcast
9:53 AM 30.9 °F 27.5 °F 30.9 °F 100% 30.14 in 10.0 mi North 3.5 mph - N/A   Overcast
10:53 AM 32.0 °F 25.6 °F 30.9 °F 96% 30.14 in 4.0 mi North 6.9 mph - N/A   Overcast
11:53 AM 32.0 °F 28.7 °F 30.9 °F 96% 30.14 in 4.0 mi NNE 3.5 mph - N/A   Overcast
12:53 PM 32.0 °F 27.5 °F 30.9 °F 96% 30.15 in 8.0 mi North 4.6 mph - N/A   Overcast
1:53 PM 30.9 °F - 28.9 °F 92% 30.15 in 10.0 mi Calm Calm - N/A   Overcast
2:53 PM 32.0 °F 26.4 °F 30.0 °F 92% 30.15 in 10.0 mi NNE 5.8 mph - N/A   Overcast
3:53 PM 33.1 °F 26.9 °F 30.0 °F 89% 30.15 in 10.0 mi NE 6.9 mph - N/A   Overcast
4:53 PM 32.0 °F 25.6 °F 30.0 °F 92% 30.14 in 10.0 mi NE 6.9 mph - N/A   Overcast
5:53 PM 32.0 °F 25.6 °F 30.9 °F 96% 30.14 in 10.0 mi NE 6.9 mph - N/A   Overcast
6:53 PM 32.0 °F 27.5 °F 30.9 °F 96% 30.14 in 10.0 mi NNE 4.6 mph - N/A   Overcast
7:53 PM 32.0 °F 24.2 °F 30.9 °F 96% 30.14 in 9.0 mi NE 9.2 mph - N/A   Overcast
8:43 PM 30.2 °F 21.3 °F 30.2 °F 100% 30.13 in 10.0 mi NE 10.4 mph - N/A   Overcast
8:53 PM 30.9 °F 22.2 °F 30.0 °F 96% 30.13 in 8.0 mi NE 10.4 mph - N/A   Overcast
9:27 PM 30.2 °F 21.3 °F 30.2 °F 100% 30.13 in 2.0 mi NE 10.4 mph - N/A   Overcast
9:49 PM 30.2 °F 21.3 °F 30.2 °F 100% 30.13 in 1.8 mi NE 10.4 mph - N/A   Mist
9:53 PM 30.0 °F 21.1 °F 30.0 °F 100% 30.13 in 1.8 mi NE 10.4 mph - N/A   Mist
9:58 PM 30.2 °F 21.9 °F 30.2 °F 100% 30.13 in 3.0 mi NE 9.2 mph - N/A   Mist
10:11 PM 30.2 °F 21.9 °F 30.2 °F 100% 30.13 in 7.0 mi NE 9.2 mph - N/A   Overcast
10:39 PM 30.2 °F 22.6 °F 30.2 °F 100% 30.13 in 10.0 mi ENE 8.1 mph - N/A   Overcast
10:53 PM 30.0 °F 23.2 °F 30.0 °F 100% 30.13 in 10.0 mi ENE 6.9 mph - N/A   Overcast
11:42 PM 30.2 °F 21.9 °F 30.2 °F 100% 30.12 in 1.8 mi ENE 9.2 mph - N/A   Overcast
11:50 PM 30.2 °F 21.3 °F 30.2 °F 100% 30.12 in 1.2 mi ENE 10.4 mph - N/A   Overcast
11:53 PM 30.0 °F 22.4 °F 30.0 °F 100% 30.13 in 1.8 mi ENE 8.1 mph - N/A   Overcast
11:57 PM 30.2 °F 22.6 °F 30.2 °F 100% 30.12 in 3.0 mi ENE 8.1 mph - N/A   Overcast